DateTimeUTC,F1_A11,F1_S11,BsB_S11,BsG_S11,BsR_S11,BbsB_S11,BbsG_S11,BbsR_S11,BaB_A11,BaG_A11,BaR_A11,Tu_S11,T_S11,Uu_S11,U_S11,P_S11,T1_A11
2021-08-31T22:00:00Z,00000200,20000000,,,,,,,-000.23,-000.13,-000.24,18.5,25.4,02.9,01.9,0673.4,31.0
2021-08-31T22:01:00Z,00000200,20000000,,,,,,,0000.32,0000.44,0000.15,18.6,25.4,02.9,01.9,0673.4,31.0
2021-08-31T22:02:00Z,00000200,20000000,,,,,,,-000.31,-000.28,-000.06,18.6,25.5,02.9,01.9,0673.4,31.0
2021-08-31T22:03:00Z,00000200,60000000,,,,,,,0000.76,0000.59,0000.48,18.7,25.5,02.9,01.9,0673.4,31.0
2021-08-31T22:04:00Z,00000200,40000000,0004.81,0003.69,0002.45,0000.62,0000.60,0000.49,0000.75,0000.43,0000.56,19.0,25.4,02.7,01.9,0674.3,31.0
2021-08-31T22:05:00Z,00000200,00000000,0004.03,0003.53,0002.46,-000.56,0000.43,0000.41,0000.99,0001.02,0000.34,19.1,25.4,02.7,01.8,0674.4,31.0
2021-08-31T22:06:00Z,00000200,00000000,0004.33,0003.16,0002.22,0000.33,0000.18,0000.46,0000.10,0000.34,0000.62,19.0,25.4,02.8,01.9,0674.4,31.0
2021-08-31T22:07:00Z,00000200,00000000,0003.75,0003.49,0002.13,0000.32,0000.67,0000.24,0001.10,0000.62,0000.59,19.0,25.4,02.9,01.9,0674.4,31.0
2021-08-31T22:08:00Z,00000200,00000000,0005.25,0003.74,0002.32,0000.55,0000.59,0000.29,0000.37,0000.70,0000.43,19.0,25.4,02.8,01.9,0674.4,31.0
2021-08-31T22:09:00Z,00000200,00000000,0003.47,0003.49,0002.23,0000.61,0000.70,0000.64,0000.75,0000.55,0000.57,18.9,25.3,02.8,01.9,0674.4,31.0
2021-08-31T22:10:00Z,00000200,00000000,0003.90,0003.41,0002.22,0000.33,0000.38,0000.26,0001.06,0000.80,0000.40,18.9,25.3,02.9,01.9,0674.4,31.0
2021-08-31T22:11:00Z,00000200,00000000,0004.99,0003.04,0002.57,0000.27,0000.30,0000.69,0000.60,0000.57,0000.62,18.9,25.3,02.9,02.0,0674.4,31.0
2021-08-31T22:12:00Z,00000200,00000000,0004.07,0003.53,0002.23,0000.62,0000.40,0000.25,0000.66,0000.85,0000.79,18.9,25.2,02.9,01.9,0674.4,31.0
2021-08-31T22:13:00Z,00000200,00000000,0004.41,0003.24,0002.29,0000.51,0000.16,0000.61,0000.77,0000.46,0000.40,18.8,25.2,02.8,01.9,0674.3,31.0
2021-08-31T22:14:00Z,00000200,00000000,0004.74,0003.08,0002.00,-000.26,0000.16,0000.07,0000.87,0000.76,0000.83,18.8,25.2,02.8,01.9,0674.3,31.0
2021-08-31T22:15:00Z,00000200,00000000,0004.69,0003.03,0002.30,-000.58,0000.25,0000.12,0000.43,0001.14,0000.60,18.9,25.2,02.8,01.9,0674.3,31.0
2021-08-31T22:16:00Z,00000200,00000000,0004.00,0002.84,0002.25,0000.40,0000.32,0000.27,0000.51,0000.23,0000.20,19.0,25.3,02.8,01.9,0674.3,31.0
2021-08-31T22:17:00Z,00000200,00000000,0004.52,0003.06,0002.09,0000.29,0000.37,-000.11,0000.66,0000.42,0000.51,19.0,25.3,02.7,01.9,0674.3,31.0
2021-08-31T22:18:00Z,00000200,00000000,0004.49,0002.69,0002.21,0000.35,0000.44,0000.33,0000.31,0000.44,0000.25,19.0,25.3,02.7,01.9,0674.2,31.0
2021-08-31T22:19:00Z,00000200,00000000,0004.30,0003.38,0002.13,0000.33,0000.49,0000.50,0000.89,0000.66,0000.25,19.0,25.3,02.7,01.8,0674.2,31.0
2021-08-31T22:20:00Z,00000200,00000000,0003.80,0003.44,0002.08,0000.45,0000.41,0000.52,0000.67,0000.69,0000.92,18.9,25.3,02.7,01.8,0674.2,31.0
2021-08-31T22:21:00Z,00000200,00000000,0004.11,0002.96,0002.26,0001.03,0000.62,0000.51,0000.66,0000.59,0000.56,18.9,25.2,02.7,01.8,0674.2,31.0
2021-08-31T22:22:00Z,00040200,00000000,0004.02,0003.13,0001.97,0000.13,0000.44,0000.30,0000.53,0000.46,0000.13,18.9,25.2,02.8,01.9,0674.2,31.0
2021-08-31T22:23:00Z,00040200,00000000,0003.98,0002.82,0002.03,0000.74,0000.45,0000.40,0000.49,0000.44,0000.66,18.8,25.2,02.7,01.8,0674.2,31.0
2021-08-31T22:24:00Z,00040200,00000000,0003.90,0003.08,0002.22,-000.02,0000.35,0000.70,0000.83,0000.64,0000.78,18.8,25.2,02.8,01.9,0674.2,31.0
2021-08-31T22:25:00Z,00040200,00000000,0002.93,0002.98,0002.06,0000.45,0000.41,0000.12,0000.56,0000.59,0000.02,18.8,25.2,02.7,01.9,0674.2,31.0
2021-08-31T22:26:00Z,00040200,00000000,0003.77,0002.62,0002.00,0000.67,0000.52,0000.15,0000.82,0000.66,0000.60,18.8,25.1,02.8,01.9,0674.1,31.0
2021-08-31T22:27:00Z,00040200,00000000,0004.23,0002.96,0001.61,0000.22,0000.25,0000.25,0000.78,0000.82,0000.71,18.7,25.1,02.8,01.9,0674.2,30.9
2021-08-31T22:28:00Z,00040200,00000000,0003.07,0002.55,0001.92,0000.25,0000.37,0000.36,0000.10,0000.23,0000.30,18.7,25.1,02.7,01.8,0674.2,30.9
2021-08-31T22:29:00Z,00040200,00000000,0003.66,0002.98,0001.70,-000.32,0000.60,0000.21,0000.97,0001.05,0000.63,18.7,25.1,02.7,01.8,0674.2,31.0
2021-08-31T22:30:00Z,00040200,00000000,0002.74,0002.72,0001.71,0000.03,0000.33,0000.09,0000.45,0000.46,0000.12,18.8,25.1,02.7,01.8,0674.2,31.0
2021-08-31T22:31:00Z,00040200,00000000,0003.89,0002.90,0002.04,0000.40,0000.56,0000.22,0000.75,0000.85,0000.92,18.9,25.2,02.7,01.8,0674.2,31.0
2021-08-31T22:32:00Z,00040200,00000000,0004.23,0002.71,0002.24,0000.55,0000.52,0000.33,0000.93,0000.61,0000.35,19.0,25.2,02.7,01.9,0674.1,31.0
2021-08-31T22:33:00Z,00040200,00000000,0003.61,0002.75,0001.60,0000.42,0000.58,0000.05,0000.37,0000.50,0000.33,19.1,25.3,02.7,01.8,0674.1,31.0
2021-08-31T22:34:00Z,00040200,00000000,0003.68,0002.75,0001.99,0000.30,0000.80,0000.76,0000.74,0000.23,0000.47,19.1,25.3,02.8,01.9,0674.2,31.0
2021-08-31T22:35:00Z,00040200,00000000,0004.30,0002.79,0002.42,0000.41,0000.57,0000.48,0000.21,0000.67,0000.19,19.1,25.3,02.7,01.8,0674.2,31.0
2021-08-31T22:36:00Z,00040200,00000000,0002.96,0002.39,0001.77,0000.22,0000.54,-000.01,0000.81,0000.73,0000.73,19.1,25.3,02.8,01.9,0674.1,31.0
2021-08-31T22:37:00Z,00040200,00000000,0003.67,0002.41,0002.05,0000.18,0000.80,0000.63,0000.72,0000.38,0000.50,19.0,25.3,02.7,01.8,0674.2,31.0
2021-08-31T22:38:00Z,00040200,00000000,0004.12,0002.57,0001.55,0000.09,0000.40,0000.25,0000.37,0000.63,0000.44,19.0,25.3,02.7,01.9,0674.2,31.0
2021-08-31T22:39:00Z,00040200,00000000,0004.17,0002.63,0001.57,-000.15,0000.53,0000.48,0000.75,0000.40,0000.66,19.0,25.2,02.7,01.9,0674.2,31.0
2021-08-31T22:40:00Z,00040200,00000000,0003.29,0002.62,0001.88,-000.34,0000.35,0000.28,0000.82,0000.68,0000.38,18.9,25.2,02.7,01.8,0674.2,31.0
2021-08-31T22:41:00Z,00040200,00000000,0002.76,0002.73,0001.97,0000.44,0000.35,0000.01,0000.46,0000.31,0000.01,18.9,25.2,02.8,01.9,0674.2,31.0
2021-08-31T22:42:00Z,00040200,00000000,0002.99,0002.49,0001.77,0000.68,0000.34,0000.54,0000.07,0000.54,0000.50,18.8,25.2,02.8,01.9,0674.2,31.0
2021-08-31T22:43:00Z,00040200,00000000,0003.07,0002.53,0001.80,0000.66,0000.22,0000.11,0000.81,0000.43,0000.68,18.8,25.1,02.7,01.9,0674.2,31.0
2021-08-31T22:44:00Z,00040200,00000000,0003.90,0002.61,0001.97,0000.04,0000.78,0000.16,0000.96,0000.99,0000.52,18.8,25.1,02.7,01.9,0674.2,31.0
2021-08-31T22:45:00Z,00040200,00000000,0004.26,0002.51,0001.80,0000.22,0000.32,0000.34,0000.71,0000.50,0000.61,18.9,25.2,02.7,01.9,0674.2,31.0
2021-08-31T22:46:00Z,00040200,00000000,0003.71,0002.93,0001.84,-000.04,0000.51,0000.29,0000.04,0000.56,0000.32,19.0,25.2,02.7,01.9,0674.2,31.0
2021-08-31T22:47:00Z,00040200,00000000,0003.68,0002.59,0001.33,0000.15,0000.40,0000.21,0000.82,0000.73,0000.52,19.1,25.3,02.7,01.9,0674.1,31.0
2021-08-31T22:48:00Z,00040200,00000000,0003.30,0002.79,0001.69,0000.55,0000.39,0000.64,0001.01,0000.59,0000.62,19.1,25.3,02.8,01.9,0674.1,31.0
2021-08-31T22:49:00Z,00040200,00000000,0003.19,0002.60,0001.81,0000.44,0000.24,0000.35,0000.26,0000.05,-000.14,19.2,25.3,02.9,02.0,0674.1,31.0
2021-08-31T22:50:00Z,00040200,00000000,0003.09,0002.25,0001.74,0000.77,0000.49,0000.15,0000.63,0000.83,0000.97,19.1,25.3,02.8,01.9,0674.2,31.0
2021-08-31T22:51:00Z,00040200,00000000,0003.63,0002.47,0001.56,0000.05,0000.16,0000.09,0000.76,0000.57,0000.05,19.1,25.3,02.8,01.9,0674.2,31.0
2021-08-31T22:52:00Z,00040200,00000000,0003.53,0002.46,0001.69,0000.22,0000.28,0000.26,0000.51,0000.59,0000.60,19.0,25.3,02.9,02.0,0674.1,31.0
2021-08-31T22:53:00Z,00040200,00000000,0002.95,0002.21,0001.75,0000.89,0000.21,-000.15,0000.29,0000.23,0000.58,19.0,25.3,02.9,02.0,0674.1,31.0
2021-08-31T22:54:00Z,00040200,00000000,0002.92,0002.40,0001.38,0000.25,0000.35,0000.19,0000.78,0000.92,0000.48,19.0,25.2,02.9,01.9,0674.1,31.0
2021-08-31T22:55:00Z,00040200,00000000,0002.57,0002.51,0001.44,0000.03,0000.46,0000.03,0000.77,0000.48,0000.59,18.9,25.2,02.9,02.0,0674.1,31.0
2021-08-31T22:56:00Z,00040200,00000000,0002.46,0002.39,0001.88,0000.31,0000.59,0000.15,0000.23,0000.20,0000.10,18.9,25.2,02.9,02.0,0674.1,31.0
2021-08-31T22:57:00Z,00040200,40000000,,,,,,,0000.43,-000.01,-000.14,18.9,25.2,03.2,02.2,0674.1,31.0
2021-08-31T22:58:00Z,00040200,60000000,,,,,,,-000.10,0000.13,0000.13,18.6,25.3,02.9,01.9,0673.1,31.0
2021-08-31T22:59:00Z,00040200,20000000,,,,,,,0000.01,0000.25,0000.48,18.6,25.4,02.9,01.9,0673.1,31.0
